"Pseudo-MPEC" for C1GE9Q2

Created 2019 Dec 4 2:07:08 UT using Find_Orb

Click here for an explanation of pseudo-MPECs

 
 Astrometry: 
     C1GE9Q2  C2019 11 19.35790 04 03 20.43 +22 42 18.8    ~BJ9M 19.4 GVNEOCPG96
     C1GE9Q2  C2019 11 19.36351 04 03 21.90 +22 37 20.7    ~BJ9M 19.4 GVNEOCPG96
     C1GE9Q2  C2019 11 19.36910 04 03 23.34 +22 32 25.3    ~BJ9M 18.6 GVNEOCPG96
     C1GE9Q2  C2019 11 19.37470 04 03 24.80 +22 27 29.8    ~BJ9M 18.8 GVNEOCPG96
     C1GE9Q2  C2019 11 19.42892 04 03 39.37 +21 39 29.5    ~BJAb 18.7 GVNEOCPI52
     C1GE9Q2  C2019 11 19.42944 04 03 39.54 +21 39 01.4    ~BJAb 18.7 GVNEOCPI52
     C1GE9Q2  C2019 11 19.42996 04 03 39.68 +21 38 33.8    ~BJAb 18.7 GVNEOCPI52
     C1GE9Q2  C2019 11 19.43049 04 03 39.81 +21 38 05.8    ~BJAb 19.0 GVNEOCPI52

Station data:
(G96) Mt. Lemmon Survey  (N32.442754 W110.788720)  US/Arizona.  Observers T.
   A. Pruyne, B. M. Africano, E. J. Christensen, G. A. Farneth, D. C. Fuls,
   A. R. Gibbs, A. D. Grauer, H. Gröller, J. A. Johnson, R. A. Kowalski, S.
   M. Larson, G. J. Leonard, D. Rankin, R. L. Seaman, F. C. Shelly. 1.5-m
   reflector + 10K CCD.
(I52) Steward Observatory, Mt. Lemmon Station  (N32.442547 W110.788920)
   US/Arizona.  Observers T. A. Pruyne, B. M. Africano, E. J. Christensen, G.
   A. Farneth, D. C. Fuls, A. R. Gibbs, A. D. Grauer, H. Gröller, J. A.
   Johnson, R. A. Kowalski, S. M. Larson, G. J. Leonard, D. Rankin, R. L.
   Seaman, F. C. Shelly. 1.0-m reflector + CCD.

Orbital elements:  C1GE9Q2
   Perihelion 2019 Dec 2.211178 +/- 13.3 TT =  5:04:05 (JD 2458819.711178)
Epoch 2019 Nov 19.0 TT = JDT 2458806.5   Earth MOID: 0.0303   AutoNEOCP
M 350.19944595 +/- 9                (J2000 ecliptic)
n   0.74183799 +/- 0.133            Peri.  193.18030 +/- 14
a   1.20854641 +/- 0.145            Node   236.75894 +/- 0.06
e   0.1601985 +/- 0.0945            Incl.   25.29502 +/- 7
P   1.33/485.27d           H 26.3   G  0.15   U 11.4  
q 1.01493907 +/- 0.0126    Q 1.40215375 +/- 0.26
From 8 observations 2019 Nov. 19 (1.7 hr); mean residual 0".34
Residuals in arcseconds: 
191119 G96  .08-  .61+    191119 G96  .04-  .62+    191119 I52  .12+  .12-    
191119 G96  .15+  .81-    191119 I52  .17-  .20+    191119 I52  .13-  .11+    
191119 G96  .03-  .40-    191119 I52  .18+  .21-    

Ephemerides (geocentric):
Date (UTC) HH   RA              Dec         delta   r     elong  mag " sig PA
---- -- -- --  -------------   -----------  ------ ------ -----  --- ---- ---
2019 12 04 02  04 41 59.542   -56 31 40.56  .11633 1.0150 101.3 24.2 6184   3
2019 12 04 03  04 42 02.304   -56 33 56.92  .11664 1.0150 101.3 24.2 6186   3
2019 12 04 04  04 42 05.057   -56 36 12.47  .11695 1.0150 101.2 24.2 6189   3
2019 12 04 05  04 42 07.802   -56 38 27.24  .11726 1.0150 101.2 24.2 6191   2
2019 12 04 06  04 42 10.538   -56 40 41.21  .11757 1.0150 101.2 24.2 6193   2
2019 12 04 07  04 42 13.266   -56 42 54.40  .11787 1.0150 101.1 24.2 6195   2
2019 12 04 08  04 42 15.985   -56 45 06.82  .11818 1.0150 101.1 24.2 6197   2
2019 12 04 09  04 42 18.696   -56 47 18.47  .11849 1.0150 101.0 24.2 6199   2
2019 12 04 10  04 42 21.399   -56 49 29.36  .11880 1.0150 101.0 24.2 6201   2
2019 12 04 11  04 42 24.093   -56 51 39.49  .11911 1.0150 100.9 24.2 6203   2
2019 12 04 12  04 42 26.779   -56 53 48.86  .11942 1.0150 100.9 24.2 6205   2
2019 12 04 13  04 42 29.456   -56 55 57.50  .11972 1.0150 100.9 24.2 6207   2
2019 12 04 14  04 42 32.126   -56 58 05.39  .12003 1.0150 100.8 24.2 6209   2
2019 12 04 15  04 42 34.787   -57 00 12.55  .12034 1.0150 100.8 24.2 6211   2
2019 12 04 16  04 42 37.441   -57 02 18.98  .12065 1.0150 100.7 24.3 6213   2
2019 12 04 17  04 42 40.086   -57 04 24.68  .12096 1.0150 100.7 24.3 6215   2
2019 12 04 18  04 42 42.723   -57 06 29.67  .12127 1.0150 100.7 24.3 6217   2
2019 12 04 19  04 42 45.352   -57 08 33.95  .12157 1.0150 100.6 24.3 6219   2
2019 12 04 20  04 42 47.974   -57 10 37.52  .12188 1.0150 100.6 24.3 6221   2
2019 12 04 21  04 42 50.587   -57 12 40.39  .12219 1.0150 100.5 24.3 6223   2
2019 12 04 22  04 42 53.193   -57 14 42.57  .12250 1.0151 100.5 24.3 6224   2
2019 12 04 23  04 42 55.791   -57 16 44.05  .12281 1.0151 100.5 24.3 6226   2
2019 12 05 00  04 42 58.381   -57 18 44.85  .12311 1.0151 100.4 24.3 6228   2
2019 12 05 01  04 43 00.963   -57 20 44.97  .12342 1.0151 100.4 24.3 6230   2
2019 12 05 02  04 43 03.538   -57 22 44.42  .12373 1.0151 100.3 24.3 6232   2
2019 12 05 03  04 43 06.105   -57 24 43.19  .12404 1.0151 100.3 24.3 6234   2
2019 12 05 04  04 43 08.664   -57 26 41.30  .12435 1.0151 100.3 24.3 6236   2
2019 12 05 05  04 43 11.216   -57 28 38.75  .12466 1.0151 100.2 24.3 6238   2
2019 12 05 06  04 43 13.760   -57 30 35.54  .12496 1.0151 100.2 24.3 6239   2
2019 12 05 07  04 43 16.297   -57 32 31.69  .12527 1.0151 100.2 24.3 6241   2
2019 12 05 08  04 43 18.827   -57 34 27.19  .12558 1.0151 100.1 24.4 6243   2
2019 12 05 09  04 43 21.349   -57 36 22.05  .12589 1.0151 100.1 24.4 6245   2
2019 12 05 10  04 43 23.863   -57 38 16.27  .12620 1.0151 100.0 24.4 6247   2
2019 12 05 11  04 43 26.371   -57 40 09.86  .12650 1.0151 100.0 24.4 6248   2
2019 12 05 12  04 43 28.871   -57 42 02.83  .12681 1.0151 100.0 24.4 6250   2
2019 12 05 13  04 43 31.364   -57 43 55.17  .12712 1.0151  99.9 24.4 6252   2
2019 12 05 14  04 43 33.849   -57 45 46.90  .12743 1.0151  99.9 24.4 6254   2
2019 12 05 15  04 43 36.328   -57 47 38.01  .12774 1.0151  99.9 24.4 6255   2
2019 12 05 16  04 43 38.799   -57 49 28.52  .12804 1.0152  99.8 24.4 6257   2
2019 12 05 17  04 43 41.263   -57 51 18.42  .12835 1.0152  99.8 24.4 6259   2
2019 12 05 18  04 43 43.720   -57 53 07.72  .12866 1.0152  99.8 24.4 6261   2
2019 12 05 19  04 43 46.170   -57 54 56.43  .12897 1.0152  99.7 24.4 6262   2
2019 12 05 20  04 43 48.613   -57 56 44.54  .12928 1.0152  99.7 24.4 6264   2
2019 12 05 21  04 43 51.049   -57 58 32.07  .12958 1.0152  99.6 24.4 6266   2
2019 12 05 22  04 43 53.479   -58 00 19.02  .12989 1.0152  99.6 24.4 6267   2
2019 12 05 23  04 43 55.901   -58 02 05.39  .13020 1.0152  99.6 24.4 6269   2
2019 12 06 00  04 43 58.317   -58 03 51.18  .13051 1.0152  99.5 24.4 6271   2
2019 12 06 01  04 44 00.725   -58 05 36.41  .13082 1.0152  99.5 24.5 6272   2